Location: Unspecified
(0.0000°N, 0.0000°E)
Time: 21:22:40
(UTC+00:00)

Tiros 1 - Pass Details

Date: 23 October 2021
Orbit: 630 x 664 km, 48.4° (Epoch: 04 December)

Event Time Altitude Azimuth Distance (km) Brightness Sun altitude
Rises 06:41:02 0° 205° (SSW) 2,986 10.4 13.9°
Reaches altitude 10° 06:43:31 10° 197° (SSW) 2,075 9.8 14.5°
Maximum altitude 06:47:57 37° 129° (SE) 1,016 9.3 15.6°
Drops below altitude 10° 06:52:23 10° 61° (ENE) 2,070 10.7 16.7°
Sets 06:54:51 0° 53° (NE) 2,978 11.2 17.3°
